User: anonymous   Login
Location: Unspecified
(0.0000°N, 0.0000°E)
Time: 23:01:42
(UTC+00:00)
Language:

STARLINK-34019 - Orbit

View from above orbital plane
View from above orbital plane
View from above satellite
View from above satellite

Ground track
Ground track

The orbit is defined by the following mean orbital elements,

1 64032U          26145.65272939 +.00000000 +00000-0 +31292-3 0 00009
2 64032  70.0003 280.2717 0002898 266.5360  93.5467 14.98338276    04
Epoch (UTC): 25 May 2026 15:39:55
Eccentricity: 0.0002898
inclination: 70.0003°
perigee height: 570 km
apogee height: 574 km
right ascension of ascending node: 280.2717°
argument of perigee: 266.5360°
revolutions per day: 14.98338276
mean anomaly at epoch: 93.5467°

The dashed part of the orbit path shows where the satellite is in the earth's shadow,  

DLR